EW2837 Weather Reports


Display with metric or nautical units.
time (UTC)temp
F
wind
direction
speed
MPH
gust
MPH
rain 1hr
in
rain 24hr
in
rain mn
in
humidity
%
barometer
mb
20260503215019 88 242 4.0 11.0 0.00 0.00 0.00 37 1007.9
20260503214520 88 269 5.0 9.0 0.00 0.00 0.00 36 1007.9
20260503214023 88 232 5.0 8.0 0.00 0.00 0.00 39 1007.9
20260503213526 88 242 4.0 7.0 0.00 0.00 0.00 35 1008.1
20260503213024 89 317 3.0 7.0 0.00 0.00 0.00 37 1008.1
20260503212543 89 186 3.0 8.0 0.00 0.00 0.00 38 1008.1
20260503212042 88 265 3.0 8.0 0.00 0.00 0.00 37 1008.2
20260503211522 88 245 4.0 7.0 0.00 0.00 0.00 39 1008.2
20260503211043 87 272 4.0 9.0 0.00 0.00 0.00 41 1008.3
20260503210543 87 222 3.0 9.0 0.00 0.00 0.00 41 1008.4
20260503210020 87 232 4.0 8.0 0.00 0.00 0.00 39 1008.4
20260503205520 87 196 3.0 8.0 0.00 0.00 0.00 42 1008.5
20260503205027 86 287 4.0 8.0 0.00 0.00 0.00 42 1008.5
20260503204528 87 251 3.0 6.0 0.00 0.00 0.00 42 1008.6
20260503204050 86 244 4.0 9.0 0.00 0.00 0.00 43 1008.7
20260503203551 86 247 3.0 8.0 0.00 0.00 0.00 43 1008.7
20260503203027 85 205 4.0 8.0 0.00 0.00 0.00 47 1008.8
20260503202528 85 243 3.0 7.0 0.00 0.00 0.00 47 1008.9
20260503202029 85 298 2.0 8.0 0.00 0.00 0.00 47 1008.9
20260503201530 85 284 4.0 8.0 0.00 0.00 0.00 48 1009.0
20260503201030 84 277 3.0 8.0 0.00 0.00 0.00 50 1009.1
20260503200550 84 238 5.0 8.0 0.00 0.00 0.00 49 1009.1
20260503200029 83 188 4.0 7.0 0.00 0.00 0.00 50 1009.2
20260503195527 83 281 4.0 7.0 0.00 0.00 0.00 53 1009.3
20260503195029 83 217 2.0 8.0 0.00 0.00 0.00 53 1009.4
20260503194511 82 223 4.0 7.0 0.00 0.00 0.00 51 1009.5
20260503194029 82 282 4.0 7.0 0.00 0.00 0.00 54 1009.6
20260503193530 81 254 3.0 7.0 0.00 0.00 0.00 53 1009.7
20260503193030 82 268 4.0 7.0 0.00 0.00 0.00 56 1009.7
20260503192514 81 297 2.0 7.0 0.00 0.00 0.00 57 1009.8
20260503192032 81 316 4.0 6.0 0.00 0.00 0.00 57 1009.8
20260503191528 80 304 3.0 7.0 0.00 0.00 0.00 58 1009.8
20260503191047 80 260 4.0 7.0 0.00 0.00 0.00 57 1009.9
20260503190523 80 250 3.0 7.0 0.00 0.00 0.00 59 1010.0
20260503190023 79 190 3.0 7.0 0.00 0.00 0.00 59 1010.1
20260503185522 79 317 4.0 7.0 0.00 0.00 0.00 59 1010.1
20260503185021 79 327 2.0 6.0 0.00 0.00 0.00 58 1010.2
20260503184520 79 213 3.0 5.0 0.00 0.00 0.00 60 1010.3
20260503184022 78 275 2.0 4.0 0.00 0.00 0.00 60 1010.3
20260503183520 77 270 2.0 4.0 0.00 0.00 0.00 62 1010.4
20260503183022 77 271 2.0 6.0 0.00 0.00 0.00 61 1010.5
20260503182523 76 240 3.0 6.0 0.00 0.00 0.00 62 1010.5
20260503182043 76 316 2.0 5.0 0.00 0.00 0.00 60 1010.6
20260503181523 76 128 2.0 4.0 0.00 0.00 0.00 62 1010.7
20260503181024 75 263 2.0 6.0 0.00 0.00 0.00 61 1010.8
20260503180542 75 244 2.0 6.0 0.00 0.00 0.00 61 1010.8
20260503180019 74 292 1.0 6.0 0.00 0.00 0.00 62 1010.9
20260503175521 74 295 3.0 6.0 0.00 0.00 0.00 64 1010.9
20260503175018 74 277 3.0 5.0 0.00 0.00 0.00 63 1010.9
20260503174517 73 331 1.0 5.0 0.00 0.00 0.00 61 1011.0
20260503174018 73 228 2.0 6.0 0.00 0.00 0.00 62 1011.1
20260503173520 73 254 3.0 6.0 0.00 0.00 0.00 62 1011.0
20260503173038 72 322 2.0 4.0 0.00 0.00 0.00 61 1011.1
20260503172538 72 249 2.0 4.0 0.00 0.00 0.00 62 1011.2
20260503172017 72 202 2.0 4.0 0.00 0.00 0.00 64 1011.2
20260503171516 71 231 2.0 4.0 0.00 0.00 0.00 63 1011.2
20260503171015 70 300 2.0 5.0 0.00 0.00 0.00 63 1011.3
20260503170516 69 265 2.0 5.0 0.00 0.00 0.00 64 1011.3
20260503150512 58 71 0.0 2.0 0.00 0.00 0.00 93 1011.9
20260503131024 49 79 1.0 2.0 0.00 0.00 0.00 96 1011.6
20260503130523 49 89 1.0 2.0 0.00 0.00 0.00 96 1011.5
20260503110517 51 40 0.0 1.0 0.00 0.00 0.00 95 1012.0
20260503081527 56 58 0.0 2.0 0.00 0.00 0.00 91 1011.8
20260503081029 57 58 1.0 3.0 0.00 0.00 0.00 91 1011.9
20260503080550 57 62 1.0 3.0 0.00 0.00 0.00 91 1011.9
20260503072520 58 286 0.0 3.0 0.00 0.00 0.00 89 1011.8
20260503072021 58 274 1.0 3.0 0.00 0.00 0.00 89 1011.8
20260503071544 59 271 1.0 3.0 0.00 0.00 0.00 88 1011.7
20260503071023 59 243 1.0 3.0 0.00 0.00 0.00 88 1011.7
20260503070523 59 225 2.0 3.0 0.00 0.00 0.00 87 1011.7
20260503055028 61 304 0.0 1.0 0.00 0.00 0.00 83 1012.1
20260503054526 62 304 0.0 2.0 0.00 0.00 0.00 83 1012.1
20260503054013 62 304 1.0 2.0 0.00 0.00 0.00 83 1012.1
20260503053514 61 310 1.0 2.0 0.00 0.00 0.00 83 1012.1
20260503053014 61 25 1.0 1.0 0.00 0.00 0.00 82 1012.2
20260503052515 61 25 0.0 0.0 0.00 0.00 0.00 82 1012.2
20260503052017 62 25 0.0 0.0 0.00 0.00 0.00 82 1012.2
20260503051520 62 25 0.0 0.0 0.00 0.00 0.00 82 1012.1
20260503051019 62 25 0.0 1.0 0.00 0.00 0.00 81 1012.1
20260503050520 63 25 0.0 1.0 0.00 0.00 0.00 79 1012.1
20260503050021 63 25 0.0 1.0 0.00 0.00 0.00 79 1012.2
20260503045521 63 25 0.0 1.0 0.00 0.00 0.00 79 1012.1
20260503045020 63 25 0.0 2.0 0.00 0.00 0.00 79 1012.1
20260503044521 63 30 1.0 3.0 0.00 0.00 0.00 78 1012.0
20260503044021 64 42 1.0 3.0 0.00 0.00 0.00 78 1012.0
20260503043524 64 38 1.0 3.0 0.00 0.00 0.00 76 1012.1
20260503043029 64 47 1.0 3.0 0.00 0.00 0.00 76 1012.1
20260503042526 65 65 1.0 5.0 0.00 0.00 0.00 75 1012.0
20260503042026 65 63 2.0 5.0 0.00 0.00 0.00 74 1012.0
20260503041547 65 95 3.0 6.0 0.00 0.00 0.00 74 1012.0
20260503041048 66 98 2.0 6.0 0.00 0.00 0.00 74 1011.9
20260503040529 66 87 2.0 5.0 0.00 0.00 0.00 74 1011.9
20260503040031 66 107 3.0 5.0 0.00 0.00 0.00 73 1011.9
20260503035514 67 89 3.0 8.0 0.00 0.00 0.00 73 1011.8
20260503035030 67 124 4.0 10.0 0.00 0.00 0.00 72 1011.8
20260503034526 67 143 6.0 10.0 0.00 0.00 0.00 71 1011.7
20260503034028 68 119 5.0 8.0 0.00 0.00 0.00 70 1011.5
20260503033528 68 159 3.0 9.0 0.00 0.00 0.00 70 1011.4
20260503033030 69 114 3.0 9.0 0.00 0.00 0.00 68 1011.3
20260503032529 69 161 4.0 9.0 0.00 0.00 0.00 68 1011.3
20260503032029 70 119 5.0 11.0 0.00 0.00 0.00 66 1011.2
20260503031550 71 134 5.0 12.0 0.00 0.00 0.00 66 1011.2
20260503031028 71 141 7.0 11.0 0.00 0.00 0.00 65 1011.0
20260503030514 72 101 8.0 11.0 0.00 0.00 0.00 65 1010.9
20260503030016 72 121 6.0 10.0 0.00 0.00 0.00 64 1010.7
20260503025515 73 146 6.0 10.0 0.00 0.00 0.00 63 1010.6
20260503025033 73 102 3.0 7.0 0.00 0.00 0.00 63 1010.5
20260503024512 73 136 3.0 7.0 0.00 0.00 0.00 62 1010.5
20260503024014 73 144 3.0 5.0 0.00 0.00 0.00 63 1010.4
20260503023516 73 172 2.0 4.0 0.00 0.00 0.00 62 1010.1
20260503023017 73 143 2.0 4.0 0.00 0.00 0.00 62 1010.1
20260503022537 74 188 2.0 4.0 0.00 0.00 0.00 63 1010.0
20260503022036 74 175 1.0 4.0 0.00 0.00 0.00 62 1009.9
20260503021514 74 174 2.0 4.0 0.00 0.00 0.00 61 1009.9
20260503021016 75 222 2.0 4.0 0.00 0.00 0.00 60 1009.9
20260503020518 75 192 2.0 5.0 0.00 0.00 0.00 59 1009.9
20260503020016 75 157 2.0 5.0 0.00 0.00 0.00 58 1009.8
20260503015518 76 234 2.0 4.0 0.00 0.00 0.00 59 1009.8
20260503015018 76 236 1.0 4.0 0.00 0.00 0.00 58 1009.7
20260503014517 76 227 2.0 5.0 0.00 0.00 0.00 57 1009.7
20260503014038 76 309 2.0 5.0 0.00 0.00 0.00 58 1009.7
20260503013521 76 236 2.0 4.0 0.00 0.00 0.00 59 1009.8
20260503013023 76 225 1.0 4.0 0.00 0.00 0.00 57 1009.9
20260503012522 76 275 2.0 7.0 0.00 0.00 0.00 59 1019.0
20260503012014 76 217 2.0 7.0 0.00 0.00 0.00 60 1009.9
20260503011515 76 207 2.0 5.0 0.00 0.00 0.00 58 1009.9
20260503011017 76 247 1.0 4.0 0.00 0.00 0.00 60 1009.9
20260503010518 76 252 3.0 4.0 0.00 0.00 0.00 59 1009.9
20260503010018 76 203 2.0 4.0 0.00 0.00 0.00 59 1009.9
20260503005516 76 193 1.0 5.0 0.00 0.00 0.00 58 1009.9
20260503005016 77 252 2.0 5.0 0.00 0.00 0.00 58 1010.0
20260503004513 76 265 2.0 6.0 0.00 0.00 0.00 59 1010.0
20260503004030 76 228 1.0 6.0 0.00 0.00 0.00 59 1010.1
20260503003532 75 246 3.0 6.0 0.00 0.00 0.00 60 1010.0
20260503003029 75 269 3.0 6.0 0.00 0.00 0.00 59 1010.0
20260503002530 75 237 3.0 7.0 0.00 0.00 0.00 59 1010.1
20260503002031 75 313 3.0 7.0 0.00 0.00 0.00 61 1010.0
20260503001531 75 288 2.0 6.0 0.00 0.00 0.00 59 1010.1
20260503001033 75 190 3.0 7.0 0.00 0.00 0.00 61 1010.0
20260503000512 74 234 2.0 7.0 0.00 0.00 0.00 61 1010.1
20260503000018 75 299 3.0 6.0 0.00 0.00 0.00 59 1010.2
20260502235521 74 234 3.0 7.0 0.00 0.00 0.00 61 1010.3
20260502235023 74 215 4.0 7.0 0.00 0.00 0.00 63 1010.3
20260502234525 74 163 2.0 4.0 0.00 0.00 0.00 65 1010.4
20260502234027 74 226 2.0 7.0 0.00 0.00 0.00 62 1010.5
20260502233526 74 289 4.0 7.0 0.00 0.00 0.00 62 1010.5
20260502233024 74 224 3.0 7.0 0.00 0.00 0.00 63 1010.6
20260502232545 74 173 4.0 7.0 0.00 0.00 0.00 62 1010.7
20260502232045 73 246 3.0 6.0 0.00 0.00 0.00 61 1010.7
20260502231526 73 204 3.0 6.0 0.00 0.00 0.00 62 1010.8
20260502231027 72 163 3.0 6.0 0.00 0.00 0.00 63 1010.9
20260502230529 72 309 3.0 7.0 0.00 0.00 0.00 63 1010.9
20260502230027 72 315 2.0 7.0 0.00 0.00 0.00 62 1011.0
20260502225529 72 333 2.0 8.0 0.00 0.00 0.00 64 1011.2
20260502225028 72 254 4.0 8.0 0.00 0.00 0.00 66 1011.2
20260502224531 72 259 4.0 7.0 0.00 0.00 0.00 64 1011.3
20260502224029 72 300 2.0 7.0 0.00 0.00 0.00 65 1011.3
20260502223515 72 248 4.0 7.0 0.00 0.00 0.00 64 1011.6
20260502223014 71 227 2.0 7.0 0.00 0.00 0.00 65 1011.7
20260502222531 71 279 4.0 7.0 0.00 0.00 0.00 66 1011.9
20260502222031 70 149 1.0 8.0 0.00 0.00 0.00 67 1012.0
20260502221511 70 242 5.0 8.0 0.00 0.00 0.00 68 1012.1
20260502221012 69 311 2.0 5.0 0.00 0.00 0.00 68 1012.1
20260502220511 69 210 3.0 6.0 0.00 0.00 0.00 66 1012.2
20260502220030 68 202 2.0 6.0 0.00 0.00 0.00 68 1012.2
20260502215511 68 309 1.0 8.0 0.00 0.00 0.00 66 1012.3